Theta_e
317 317 318 317 316 316 317 318 318 318 318 316 316 316 315 315 314 314 313 311 311 312 311 311 311 310 309 310 309 308 308 308 307 308 308 307 307 307 306 306 306 304 305 304 306 303 304 304 304 304 303 301 301 302 303 302 301 302 303 301 301 301 302 300 298 298 299 300 302 303 304 303 302 301 301 301 302 303 306 303 304 304 305 305 306
317 316 317 317 316 316 317 318 318 318 318 318 316 315 314 316 315 314 313 312 312 313 312 312 312 312 310 310 310 310 309 309 308 308 308 307 306 308 307 307 305 304 303 303 303 305 302 302 303 304 302 302 301 302 303 302 300 300 300 301 299 300 300 299 297 297 296 299 300 302 301 302 300 301 301 301 301 302 302 302 303 303 304 304 304
317 316 316 316 316 317 317 318 318 317 317 317 318 317 315 315 316 315 313 312 312 313 314 313 312 312 311 311 310 310 310 310 309 308 308 307 307 307 307 306 305 304 303 303 303 303 301 302 302 302 304 301 302 301 301 302 301 300 300 300 299 299 300 299 297 295 295 296 298 299 299 300 299 300 301 301 301 301 301 301 302 304 305 305 304
316 316 315 315 316 316 316 316 316 316 315 315 317 318 318 317 317 316 315 313 312 311 313 313 312 312 312 311 310 309 309 309 308 308 309 308 307 308 307 306 305 305 305 304 303 303 301 301 301 302 303 301 301 300 300 300 300 300 298 299 298 298 298 297 297 296 295 294 295 297 298 297 298 299 300 300 299 299 300 301 302 302 303 304 304
315 314 314 314 314 315 314 315 315 316 316 315 316 317 318 318 317 316 316 314 313 312 312 312 313 312 313 312 311 311 310 310 309 309 309 309 308 308 308 307 305 305 306 304 306 304 303 302 302 302 301 300 301 300 299 299 299 298 296 296 296 297 297 297 295 295 293 292 293 295 295 295 296 297 298 297 298 299 299 299 300 300 300 301 302
316 315 315 315 314 313 313 313 314 315 315 314 316 317 318 318 317 316 317 316 315 315 314 313 314 312 312 312 312 312 311 310 310 310 310 310 309 308 308 307 306 305 305 304 305 304 304 303 303 302 301 300 299 299 298 297 296 294 294 295 295 295 294 294 294 292 291 290 290 291 291 293 293 293 295 297 296 296 296 297 297 298 298 298 299
314 315 314 314 312 311 312 312 313 312 313 314 315 315 315 316 317 316 315 315 315 314 315 315 314 314 314 314 313 313 313 312 312 312 311 311 310 309 308 307 306 306 305 305 305 304 304 304 302 302 302 301 300 298 297 296 296 294 296 294 294 293 293 292 291 290 290 290 289 290 290 292 292 292 294 296 295 295 294 295 294 296 297 296 297
313 313 313 313 312 312 312 312 312 313 314 315 315 315 313 314 314 315 315 314 314 315 315 315 314 314 315 315 315 314 313 313 312 312 312 311 310 309 308 307 306 306 305 305 304 304 304 303 303 302 302 301 300 298 296 294 293 292 293 293 293 292 291 291 290 289 289 290 289 288 289 289 290 291 294 293 293 293 295 294 292 293 295 296 297
312 312 311 311 311 312 311 311 312 314 315 315 315 315 314 312 313 315 315 313 314 315 315 315 313 314 314 313 314 313 313 312 312 312 311 311 310 309 308 308 307 306 305 304 303 303 303 302 302 301 304 305 302 301 299 298 295 292 293 293 292 290 290 289 290 289 289 289 289 289 288 289 289 290 290 289 290 291 293 293 292 293 294 294 296
310 309 310 310 309 310 312 311 313 314 315 315 315 314 314 313 313 313 314 314 313 313 313 314 313 313 312 312 311 311 312 313 313 308 309 313 311 311 310 308 308 307 306 304 302 302 302 301 304 309 307 304 300 296 295 296 298 296 293 293 295 291 290 289 288 289 290 289 288 288 288 288 288 289 289 290 292 292 291 292 291 293 293 293 294
305 305 307 306 306 306 307 309 310 312 314 314 312 313 313 311 311 311 311 311 311 311 311 312 312 312 312 312 311 312 313 314 306 302 301 304 311 310 310 309 308 308 307 305 302 302 300 301 304 306 303 301 297 294 293 294 295 295 295 296 296 293 290 289 288 288 290 289 288 288 287 287 289 289 289 291 292 292 290 291 291 291 290 290 290
302 302 303 302 303 304 304 305 304 305 305 307 308 309 310 309 309 308 308 309 310 308 309 311 311 309 309 309 309 311 312 308 303 301 299 299 304 310 310 309 308 307 307 305 304 302 301 301 302 302 298 296 294 293 294 293 293 293 293 293 293 294 294 292 291 289 288 288 287 288 287 288 288 289 289 290 291 291 291 291 290 290 290 289 288
299 299 299 299 300 301 302 303 304 303 304 305 305 305 307 307 307 308 308 311 309 309 310 308 309 308 308 308 309 309 310 305 301 300 299 298 298 304 309 309 308 307 306 305 304 302 301 301 301 301 300 303 301 294 293 293 293 292 292 293 293 292 291 291 293 293 290 288 288 287 288 287 288 289 291 291 291 290 290 290 290 289 289 289 289
299 298 297 297 297 298 299 300 300 299 300 300 300 300 301 302 303 303 305 306 307 308 307 308 309 307 308 308 308 305 307 305 300 299 298 297 296 298 308 308 307 306 306 304 303 301 301 301 301 301 301 302 300 296 294 293 293 292 291 290 290 293 292 291 290 290 292 292 289 289 289 290 290 289 292 291 290 290 290 290 290 289 289 289 290
297 297 297 298 297 298 299 298 298 298 298 297 297 297 297 297 298 299 301 301 302 306 307 306 307 305 304 304 304 306 309 303 299 297 296 296 296 295 305 306 304 304 305 304 302 301 301 302 301 301 300 300 301 298 295 294 293 293 291 291 290 290 290 290 290 290 290 290 288 289 289 290 290 291 291 291 290 291 291 290 289 289 289 290 289
296 295 297 297 296 297 298 296 296 296 296 295 296 296 296 298 298 299 296 297 299 300 300 301 302 302 304 304 304 305 302 298 298 295 294 294 294 301 301 301 301 302 302 302 301 301 301 301 300 300 300 300 298 296 296 296 294 292 291 289 289 289 290 294 293 292 292 290 290 290 289 290 292 290 291 291 290 290 291 291 289 288 287 287 286
294 294 296 296 296 297 297 297 296 296 295 296 296 297 297 297 296 297 295 294 295 296 298 299 299 300 300 302 304 301 296 292 293 293 293 293 297 300 300 300 300 299 299 300 300 301 301 299 298 298 295 291 291 290 291 294 291 289 289 288 289 288 288 291 292 291 291 291 290 290 290 290 290 290 290 291 290 290 288 286 285 286 285 284 285
297 296 296 296 296 296 297 296 297 296 295 295 295 295 295 295 295 296 298 297 296 295 296 297 296 297 300 301 303 302 294 292 292 292 293 296 298 299 299 298 297 298 298 299 297 295 298 304 299 294 291 290 289 290 290 291 289 288 289 288 286 285 286 287 289 290 291 290 290 290 290 289 290 290 291 291 291 291 286 285 286 285 285 285 284
296 296 296 296 296 297 296 297 296 295 295 294 295 295 295 296 295 295 295 295 296 294 295 295 294 291 294 299 305 298 290 292 293 293 293 295 298 298 298 297 296 297 297 293 292 292 292 295 296 293 291 290 289 289 289 290 287 287 287 286 285 284 284 284 284 285 285 286 286 287 287 289 290 288 290 291 291 292 290 288 287 285 284 285 285
296 295 296 296 296 296 296 297 296 296 295 295 294 296 295 296 296 296 295 295 295 292 294 291 291 291 292 295 298 293 291 290 292 292 293 294 296 297 296 295 293 293 294 293 292 291 291 291 291 289 289 289 288 288 289 289 287 286 285 283 284 284 284 284 286 285 284 285 284 284 286 286 286 287 287 287 289 292 290 289 288 287 286 285 286
296 298 297 296 296 296 295 296 296 295 294 295 295 295 295 296 295 296 297 295 294 292 291 292 291 290 290 290 290 290 291 291 291 292 292 293 293 294 293 293 292 292 293 293 291 290 289 288 288 289 289 288 288 288 289 289 289 287 284 284 284 286 288 284 286 289 284 285 286 286 285 286 285 285 286 286 287 288 289 289 289 288 287 286 285
298 298 296 296 296 296 296 295 295 298 295 296 296 295 295 295 295 295 294 295 295 291 290 290 290 289 289 289 288 288 292 294 291 292 292 292 291 292 292 291 292 292 291 290 289 288 287 287 287 289 288 288 288 288 288 288 288 288 285 287 287 288 287 287 286 285 285 285 283 284 284 284 284 285 286 286 287 289 288 288 288 288 288 288 287
297 297 296 296 295 295 295 296 296 298 297 297 296 295 295 295 295 294 294 295 294 291 291 290 289 288 287 286 286 287 287 290 292 291 291 290 290 290 290 291 291 293 291 290 289 288 287 287 288 290 288 288 288 288 288 288 289 287 288 287 287 287 288 285 285 285 283 283 284 283 284 284 284 285 286 286 287 287 288 288 288 288 289 290 290
295 294 294 295 294 294 296 296 295 295 295 295 295 294 294 293 294 294 294 295 291 290 290 290 288 287 286 285 286 286 286 287 290 291 290 289 290 290 289 290 291 292 292 290 290 289 288 287 290 288 288 288 288 288 288 288 286 287 288 288 288 288 286 284 283 284 283 282 282 282 283 284 285 285 285 287 287 288 289 290 290 290 290 290 290
294 294 294 294 294 295 294 294 294 294 294 294 294 293 292 292 294 294 293 293 292 292 289 290 289 287 285 286 285 285 286 286 286 289 289 289 289 289 289 289 289 289 290 290 289 289 289 289 289 288 288 288 288 288 288 288 288 288 288 287 290 285 284 283 283 283 281 282 282 284 284 285 285 286 286 286 287 288 288 290 291 291 291 291 290
294 295 294 293 295 294 294 294 293 294 294 294 293 293 293 293 293 293 293 293 293 293 290 289 288 287 286 286 285 286 286 285 287 288 290 289 289 289 289 289 290 289 289 288 288 288 288 288 288 289 289 289 288 287 287 287 288 288 288 289 284 283 283 282 282 282 282 282 283 283 283 283 284 285 285 286 285 286 286 286 287 287 288 288 288
293 293 292 292 292 292 293 293 293 292 293 292 291 292 292 293 293 292 292 293 293 292 291 289 288 287 286 285 285 285 286 285 286 286 286 287 288 289 289 289 289 288 288 287 288 288 288 289 288 288 288 288 287 288 287 287 284 284 282 282 283 283 283 283 283 283 283 283 283 283 284 284 285 284 284 284 284 285 285 286 285 285 285 286 286
291 290 291 291 291 291 292 291 291 292 288 287 288 288 289 291 293 294 293 294 294 293 291 290 290 288 287 286 286 286 286 286 285 286 287 289 288 288 287 286 285 284 285 285 285 287 286 287 287 286 286 285 284 283 282 282 283 284 282 283 284 283 286 287 287 283 283 283 283 283 283 283 283 283 284 283 283 284 285 284 284 284 284 285 284
290 291 291 291 291 290 292 292 292 293 287 285 283 284 285 284 286 289 290 293 296 294 292 291 290 290 289 287 286 286 285 286 286 288 288 288 287 286 285 284 285 285 287 287 286 286 286 286 285 285 284 283 281 281 280 280 281 282 282 283 283 283 283 283 283 283 283 282 282 282 283 283 283 284 284 284 284 284 284 283 283 283 284 285 284
292 291 291 290 291 290 291 291 292 290 288 286 285 286 286 287 286 286 287 291 293 293 293 293 292 289 288 286 286 286 286 288 287 288 288 288 288 287 287 287 287 286 287 287 287 286 285 285 283 282 280 278 277 278 278 278 279 280 280 283 281 281 282 282 282 282 282 282 282 283 283 284 284 284 285 284 285 285 286 285 284 285 284 284 284
290 290 290 290 289 290 290 291 290 289 288 287 288 287 286 287 287 288 288 290 291 291 291 291 290 290 290 287 287 288 288 287 287 288 288 287 287 287 286 287 287 286 287 286 286 285 284 282 279 278 276 278 278 278 278 279 279 279 280 280 281 281 281 281 282 282 283 283 283 284 284 284 284 284 284 284 285 285 285 286 286 285 285 284 284
290 289 290 291 291 290 290 288 288 288 287 287 288 288 286 285 285 287 287 288 289 289 290 290 289 289 289 288 287 284 286 287 287 287 287 287 287 286 286 286 287 286 286 287 284 281 278 277 277 277 277 278 278 278 278 278 278 278 279 280 281 281 281 281 282 283 283 284 284 284 284 284 284 284 284 285 285 285 285 285 285 285 285 285 284
288 287 287 288 289 290 290 290 289 289 288 287 287 287 287 286 285 283 285 287 288 288 289 289 289 288 288 288 287 287 286 287 287 287 287 287 287 287 286 287 286 286 285 283 279 277 276 276 277 278 278 279 278 278 277 280 279 280 282 282 281 281 282 282 283 284 284 284 284 284 284 284 284 284 284 285 284 284 284 284 285 285 284 284 284
290 289 288 289 290 289 289 289 289 289 289 289 288 286 286 286 285 284 284 283 285 286 287 288 288 287 287 287 287 287 287 287 287 287 287 287 287 287 286 286 287 286 284 279 276 277 277 279 279 280 281 280 278 278 277 279 279 280 281 282 282 282 283 284 284 284 284 284 284 284 284 284 284 284 284 284 284 284 284 284 284 284 284 284 283
290 288 287 288 289 290 289 290 289 288 287 288 287 286 285 285 285 285 285 284 283 283 283 284 286 287 286 287 287 287 287 287 287 287 287 287 287 286 285 283 281 280 279 281 280 279 278 278 278 280 280 279 278 278 278 281 281 282 282 283 283 283 284 284 284 284 284 284 284 284 284 284 284 284 284 284 284 283 284 284 284 284 284 284 284
289 289 289 290 289 287 288 290 289 289 288 288 287 285 285 284 284 283 284 284 284 283 283 284 285 286 287 287 287 287 287 287 287 287 287 287 286 285 281 277 277 277 277 279 279 279 280 279 279 281 280 281 280 279 281 282 282 283 284 285 284 284 284 284 284 284 284 284 284 284 284 284 284 284 284 284 284 284 284 284 284 284 284 284 284
288 288 289 289 290 289 289 289 289 289 287 286 285 284 284 284 284 284 284 284 284 284 285 285 285 285 286 286 286 287 287 287 286 286 286 285 285 282 279 281 280 280 279 279 279 279 279 280 279 280 280 280 281 282 282 283 284 285 285 284 284 283 283 283 284 284 284 284 284 284 284 284 284 284 284 283 284 284 284 284 284 284 284 284 284
287 287 288 289 288 288 288 288 288 286 286 285 285 285 284 284 284 284 284 284 285 285 284 284 285 284 283 284 288 286 286 286 286 286 285 285 281 278 278 278 280 280 280 279 280 279 279 278 279 281 280 281 282 282 281 282 283 283 283 283 283 283 285 285 284 284 284 284 284 284 284 284 284 284 284 284 283 283 284 284 284 284 284 284 284
287 286 287 287 288 289 287 286 286 286 285 285 285 285 285 285 284 284 284 285 285 285 285 285 285 285 285 286 285 286 286 284 283 282 280 279 278 278 279 279 279 278 279 280 279 279 279 278 278 279 280 280 281 280 280 281 282 282 283 283 283 284 284 284 284 284 284 284 284 285 284 284 285 285 284 284 284 284 284 284 284 284 283 284 284
288 288 287 287 287 287 287 286 286 285 285 285 285 284 285 285 285 285 285 285 285 285 285 285 285 285 285 285 285 285 286 284 282 280 279 279 280 279 280 280 281 281 279 278 278 278 278 278 278 279 279 279 278 280 280 281 282 282 283 283 283 283 284 284 284 284 284 284 284 284 284 284 285 285 284 284 284 284 284 284 284 284 284 284 284
289 289 288 288 287 287 286 286 286 286 284 284 286 285 285 285 285 286 286 285 285 285 285 285 285 285 285 285 286 286 285 283 281 281 281 280 281 282 281 281 279 278 278 278 278 278 278 278 278 277 276 277 277 279 280 281 282 282 283 283 284 284 284 284 284 284 284 284 284 284 284 285 285 284 284 284 285 285 285 285 285 285 285 285 285
291 289 288 287 287 288 287 286 287 287 287 286 286 286 286 286 286 286 286 285 285 285 285 285 285 285 285 286 286 286 283 282 282 283 283 283 283 282 280 278 277 278 278 278 279 277 276 277 277 276 278 278 278 279 280 281 282 282 283 283 283 284 284 284 284 284 284 284 284 284 284 284 285 285 285 285 285 285 285 285 285 285 285 285 285
291 289 288 288 289 288 287 288 289 288 288 287 287 287 287 287 287 286 286 286 286 285 285 285 284 284 284 285 285 284 284 284 284 284 283 283 282 280 279 277 277 278 279 278 277 277 277 276 277 277 278 278 278 279 280 282 283 282 282 282 283 283 283 283 284 284 284 284 284 284 284 285 285 285 285 285 285 285 285 285 285 285 285 285 285
290 290 289 289 289 289 289 289 289 288 288 288 288 287 287 287 287 287 286 286 285 285 285 284 284 284 283 283 284 284 284 283 283 283 283 282 281 279 277 276 278 278 277 277 276 275 274 275 278 276 276 277 279 278 280 282 282 282 281 281 282 282 282 283 283 283 283 283 284 284 285 285 285 285 285 285 285 285 285 285 285 285 285 285 286
291 290 290 290 290 290 289 289 288 288 287 287 287 287 287 288 287 286 286 285 285 285 284 284 284 284 284 284 284 284 283 283 282 282 281 281 279 277 276 276 276 276 277 278 276 276 276 276 277 276 277 279 280 281 282 282 282 281 280 280 280 281 282 282 283 283 283 283 284 284 285 285 285 285 285 285 285 285 285 285 285 285 285 285 285
290 290 289 289 289 289 289 289 287 288 288 287 287 287 287 287 287 286 286 286 285 285 284 284 284 284 284 284 284 284 283 282 282 281 280 278 278 277 276 276 276 277 276 276 277 276 277 276 276 277 277 279 280 281 282 282 281 280 280 280 281 282 283 283 283 283 283 283 284 284 285 285 285 285 285 285 285 285 285 285 285 285 285 285 285
291 290 290 289 290 289 289 289 289 288 288 287 287 287 287 287 287 286 286 286 285 285 285 284 284 284 283 283 283 283 282 282 280 280 279 278 278 277 276 276 276 277 277 278 277 278 277 277 276 277 279 279 279 281 281 280 279 279 279 279 280 282 282 282 282 282 283 284 284 285 285 285 285 285 285 285 285 285 285 285 285 285 285 285 285
290 290 290 290 290 289 289 288 288 287 287 287 286 286 286 286 286 286 285 285 284 284 284 283 283 283 283 283 283 282 281 281 280 279 279 278 277 277 276 276 277 276 277 278 278 278 277 277 277 278 280 280 279 279 279 279 278 278 278 279 279 280 281 281 281 282 283 283 284 284 285 285 285 285 285 285 285 285 285 285 285 285 285 285 285
289 289 288 288 288 288 287 287 286 286 286 286 285 285 285 284 284 284 283 283 282 282 282 281 281 282 282 281 281 281 281 280 279 278 278 278 278 277 277 277 278 277 277 276 277 277 278 278 279 279 279 277 278 278 278 278 278 278 278 278 279 279 280 280 280 281 282 283 284 285 285 284 285 285 285 285 285 285 285 285 285 285 285 285 285
286 286 286 286 286 286 286 286 285 285 285 284 284 284 283 283 283 282 282 281 281 281 280 280 280 280 281 281 280 280 280 279 279 278 278 277 278 278 279 279 276 276 275 275 276 277 277 278 278 279 279 276 277 277 277 277 277 277 277 278 278 279 279 279 280 281 282 283 284 284 284 284 285 285 285 285 285 285 285 285 285 285 285 285 285
284 284 284 284 284 284 284 283 283 283 283 283 283 283 283 282 281 281 281 280 280 280 280 279 279 279 280 280 280 279 279 279 279 278 278 279 280 280 280 277 278 276 276 275 277 277 277 277 279 279 277 277 277 278 278 278 278 278 278 278 278 278 279 279 280 281 281 282 284 285 284 284 284 284 285 285 285 285 285 285 285 285 285 285 285
Wind_Speed
5 4 5 8 10 10 9 8 7 2 0 2 5 9 8 8 8 9 6 7 5 6 6 6 7 7 7 6 6 5 5 5 4 6 5 5 5 5 4 4 4 2 2 1 0 2 3 3 2 1 1 4 2 3 5 4 4 5 4 5 6 5 4 1 1 5 3 1 2 4 6 5 5 4 5 6 7 7 8 6 6 6 6 7 7
8 5 6 9 10 10 10 9 8 7 8 5 4 3 7 9 9 7 9 8 7 8 8 7 7 7 7 8 8 8 7 7 7 6 7 6 5 4 5 5 4 4 3 4 1 1 3 3 2 2 1 4 3 3 3 4 3 5 5 5 5 6 3 4 2 1 4 4 4 4 5 6 6 5 7 8 8 7 8 8 7 6 7 7 8
3 5 4 6 8 9 9 10 9 7 7 5 4 4 4 6 7 10 10 9 8 9 9 8 7 7 7 7 7 7 7 7 6 7 6 7 6 5 6 5 6 5 5 5 4 3 3 3 3 2 0 3 2 3 3 4 3 5 4 3 4 4 3 3 3 2 3 5 3 6 5 6 5 8 8 7 7 7 7 7 8 7 7 8 8
4 4 4 5 7 7 8 8 8 9 8 6 8 6 6 3 7 9 9 8 9 6 5 7 7 7 7 6 5 4 4 3 3 5 7 8 8 8 6 6 6 6 6 5 4 4 4 4 3 2 1 2 1 3 3 3 4 3 4 3 4 4 3 4 4 2 1 3 3 4 5 7 5 7 7 7 8 8 6 7 7 7 7 8 8
6 8 8 7 6 8 8 7 8 7 7 5 4 3 1 3 1 3 5 7 7 6 5 4 6 7 7 7 7 7 6 5 5 6 6 7 8 8 7 6 5 6 6 6 6 5 4 4 4 4 3 3 0 2 3 4 3 5 4 4 4 3 3 4 3 4 4 5 4 2 4 4 4 5 8 10 9 7 6 7 7 6 8 6 6
9 9 10 12 10 7 7 6 6 7 6 4 4 10 9 5 6 5 1 1 3 5 6 6 7 7 6 7 8 7 6 7 7 8 7 6 6 6 6 6 6 6 5 5 5 5 5 5 4 5 4 4 3 3 3 3 3 4 4 3 3 3 4 3 3 4 4 3 3 5 3 6 7 4 6 8 8 9 9 7 5 7 9 10 9
5 8 6 7 5 5 2 3 5 4 3 3 1 1 3 3 3 3 4 6 7 6 6 7 7 7 7 6 7 7 8 8 9 9 7 6 6 6 6 6 6 6 5 6 6 6 6 5 5 5 5 5 5 4 4 3 4 4 3 3 3 3 3 3 3 4 3 4 2 2 4 3 3 7 7 6 4 3 7 11 11 6 5 7 9
7 6 7 7 6 7 8 7 4 4 3 3 3 3 4 2 2 3 2 1 3 3 5 5 4 4 6 7 6 4 6 7 7 7 5 4 5 5 6 6 6 5 5 5 6 6 6 6 6 6 6 5 6 5 5 5 4 3 2 3 3 3 3 2 4 4 4 4 2 3 2 3 5 2 4 7 9 7 6 4 8 11 10 7 4
6 6 5 6 7 7 7 5 4 4 5 4 5 5 3 3 3 4 7 7 7 6 4 4 5 4 4 5 5 3 4 5 5 5 5 5 5 6 6 7 7 7 6 5 5 6 6 6 6 5 6 7 9 8 6 7 5 4 2 2 2 1 1 2 2 4 4 4 5 3 4 5 5 6 7 5 5 7 8 5 6 5 6 9 8
6 5 5 4 4 4 4 4 4 6 6 7 7 7 6 5 6 5 6 7 6 5 5 5 5 6 5 5 4 4 5 5 7 11 10 8 8 7 7 7 8 7 7 6 5 6 7 5 6 10 11 11 10 10 10 8 7 5 6 4 3 2 1 0 1 1 2 5 4 4 6 6 6 5 5 4 4 4 5 5 8 9 9 8 7
4 5 5 4 4 3 3 4 5 6 7 6 5 5 4 4 5 6 5 4 4 4 3 4 5 6 6 6 5 5 6 6 10 12 12 12 8 7 8 8 7 8 8 8 8 7 5 6 6 8 9 9 9 11 10 9 8 8 9 8 7 6 3 2 2 1 1 2 3 3 3 6 6 4 4 7 5 5 4 4 6 6 6 8 13
4 3 4 4 3 3 3 2 3 4 3 4 4 3 1 1 3 3 3 4 4 3 5 6 5 4 4 4 5 6 6 8 11 11 11 12 10 8 7 7 7 8 8 9 8 7 8 6 5 4 5 7 6 6 7 8 8 8 9 9 9 8 7 5 4 2 3 3 4 5 3 5 6 4 5 4 6 5 5 5 4 5 6 5 5
2 2 1 1 4 4 4 4 4 4 4 4 4 4 4 4 3 3 4 5 1 2 5 4 4 3 4 5 6 6 6 8 11 12 12 12 12 8 5 6 7 7 8 9 10 8 7 6 6 4 4 9 7 6 5 4 5 5 6 6 6 7 7 6 5 4 4 3 4 5 4 3 4 4 2 4 4 7 6 6 5 4 5 7 7
0 1 1 4 3 3 4 4 4 3 2 1 2 2 1 1 1 2 3 3 3 4 4 4 4 4 4 5 5 4 5 8 10 11 11 10 9 7 4 4 4 5 5 4 4 6 7 7 6 3 2 4 5 5 4 4 4 3 3 3 3 4 5 6 6 6 4 5 5 6 4 1 4 3 5 4 4 6 6 7 5 7 7 9 8
2 1 1 1 2 3 4 4 4 4 4 4 4 4 4 2 2 1 3 3 3 5 6 5 5 4 3 3 4 5 6 8 8 7 6 7 8 7 4 3 4 4 5 6 5 5 5 5 5 5 4 3 4 6 5 5 4 3 2 1 1 1 2 2 3 2 1 1 2 3 4 3 3 4 4 3 3 4 4 6 6 7 9 9 8
2 1 1 1 3 4 5 5 5 4 4 4 4 3 2 1 1 0 2 2 1 1 1 2 4 4 4 1 2 5 3 2 5 7 9 9 7 4 3 3 4 4 5 4 4 4 5 5 4 4 5 3 1 2 1 1 1 1 1 2 3 2 2 2 4 5 4 3 1 0 2 3 5 4 4 5 5 5 5 5 4 5 8 9 12
4 4 1 2 2 5 4 5 5 4 4 4 3 1 1 1 0 0 2 3 3 4 4 2 1 1 2 4 6 5 3 2 3 6 7 10 8 6 5 6 6 6 5 5 5 4 2 5 5 5 6 4 6 8 6 7 5 5 5 4 3 4 4 3 3 3 2 1 2 3 4 6 7 7 7 8 6 5 4 5 5 4 6 10 10
1 1 3 3 2 2 4 5 6 5 5 5 3 2 1 1 1 0 0 1 2 2 2 3 3 1 2 4 6 5 2 1 3 6 11 11 9 8 6 7 6 6 6 5 6 5 6 10 7 8 7 5 8 10 9 7 6 5 5 4 3 4 4 3 3 4 6 6 7 8 8 9 11 11 10 10 11 7 4 7 5 5 7 6 10
2 2 2 2 2 0 3 2 3 4 5 4 4 4 4 4 2 2 2 1 0 1 1 3 2 2 2 3 4 3 2 1 4 6 10 12 9 6 7 7 8 7 7 7 6 5 6 8 11 10 8 8 12 10 9 7 5 4 4 3 1 2 4 2 2 4 4 5 5 5 6 7 6 6 7 11 12 10 6 6 5 5 7 7 7
3 2 1 1 0 1 1 2 3 4 4 4 4 4 3 1 3 2 1 0 1 3 3 3 3 3 4 1 1 2 4 2 2 5 9 11 11 8 7 8 7 6 5 7 6 5 5 7 8 12 12 11 10 9 7 7 5 3 3 2 0 2 2 0 2 2 3 3 5 4 5 5 6 5 6 6 7 6 7 6 6 6 7 7 7
3 3 1 1 1 1 2 2 2 3 3 4 3 2 2 4 3 2 2 0 1 3 3 3 3 3 4 3 2 2 2 5 3 7 9 11 11 10 6 7 7 7 7 6 6 6 5 5 4 7 10 9 8 7 7 6 6 4 3 2 2 2 1 2 4 5 3 4 4 5 6 6 6 5 6 6 7 7 7 6 7 6 6 7 8
5 3 2 2 2 2 2 2 2 2 2 1 1 4 4 2 3 3 1 1 1 2 3 3 4 4 5 5 3 3 4 4 6 8 10 10 11 12 8 5 6 8 7 6 5 5 5 5 4 5 8 8 7 6 6 5 4 2 1 3 4 3 3 2 3 3 4 5 5 5 6 6 6 6 7 7 7 7 7 7 7 8 7 7 8
4 4 5 3 3 2 2 2 3 1 1 1 2 4 3 1 2 1 3 1 1 2 3 3 4 4 4 5 4 3 3 3 6 7 10 12 12 11 11 8 8 7 8 7 5 5 3 3 3 6 6 6 5 5 4 3 3 1 2 4 5 5 3 2 2 3 4 4 5 6 6 6 6 7 7 7 7 7 7 7 8 8 8 8 9
4 4 5 5 4 3 3 2 1 1 1 1 2 3 4 3 2 3 4 4 3 3 3 5 5 4 4 3 3 2 2 3 5 9 9 13 12 12 12 12 11 8 7 7 6 6 4 3 4 6 4 3 3 2 2 2 1 2 2 3 3 2 1 1 3 3 3 4 5 6 6 6 6 6 6 7 6 6 7 7 7 7 8 8 9
6 6 5 5 5 5 3 3 3 3 3 3 3 4 4 3 5 4 4 3 3 4 5 5 6 5 5 5 4 2 2 3 4 6 11 12 13 14 14 14 13 13 10 5 4 4 4 4 3 2 2 3 5 5 4 4 4 3 4 4 3 1 1 2 4 3 3 5 5 6 6 6 7 7 7 6 6 5 6 6 6 7 8 9 9
4 5 5 5 6 5 4 4 4 4 4 2 2 3 3 3 4 6 3 4 3 5 6 6 6 6 6 6 5 4 3 3 4 4 6 8 9 12 13 14 13 13 10 7 8 8 7 6 6 7 8 7 6 5 5 4 4 3 3 3 2 2 2 2 3 3 5 6 6 6 7 6 7 7 6 5 6 7 6 7 6 6 6 8 9
1 1 2 3 4 3 3 4 4 4 2 0 1 0 1 4 4 4 5 4 4 5 6 6 6 7 7 6 6 6 5 3 4 4 5 6 6 7 8 8 8 8 6 5 6 6 7 7 7 8 8 9 8 5 5 3 2 2 3 3 3 3 3 3 4 5 5 6 6 7 6 7 6 6 7 7 7 7 6 7 7 7 6 7 8
1 2 3 3 3 3 3 4 3 2 1 2 2 1 1 0 4 6 7 6 7 7 6 7 9 9 8 7 7 6 5 4 3 5 5 7 6 5 5 5 5 5 5 5 5 5 5 7 8 6 5 5 5 5 5 3 2 4 4 4 4 4 4 5 4 4 5 5 6 6 6 6 7 7 7 7 7 7 6 7 6 7 6 6 8
3 3 3 3 3 4 4 5 6 5 4 3 4 2 0 1 1 3 4 5 8 8 7 7 6 6 8 10 10 7 5 6 4 3 6 7 8 7 6 5 4 5 5 6 4 5 5 6 5 5 5 5 4 4 5 5 4 3 4 5 5 5 5 6 6 6 6 6 7 7 8 7 7 7 7 7 7 8 7 7 7 7 7 6 9
4 5 5 5 5 4 4 4 5 4 6 6 5 4 5 6 4 0 2 5 6 11 14 10 10 8 7 3 4 9 8 6 7 9 10 11 11 11 9 8 7 6 7 7 6 6 5 5 4 5 4 5 4 4 3 3 4 5 4 4 4 5 5 5 6 6 6 6 7 7 8 8 8 8 8 8 8 8 8 8 8 7 8 8 9
6 7 6 6 6 4 3 3 1 4 6 6 6 7 4 6 11 12 6 3 5 4 5 10 14 13 12 8 6 8 11 11 11 12 13 13 13 12 11 9 9 7 5 6 6 5 5 5 4 4 2 3 3 2 2 3 4 5 5 5 5 5 5 5 6 5 6 7 7 8 8 8 8 8 8 9 9 9 8 8 7 8 8 8 9
6 6 6 5 6 5 4 3 4 5 5 5 6 7 6 6 6 12 14 10 7 9 13 14 14 12 14 15 10 6 9 11 13 13 14 13 13 12 11 10 8 7 6 9 6 5 4 5 3 2 1 3 1 2 2 3 4 4 5 5 6 5 5 6 6 5 7 7 7 8 8 8 8 8 8 9 9 9 8 8 8 8 8 8 9
4 4 4 4 4 4 5 5 6 7 6 6 5 5 7 7 7 5 8 13 14 10 9 13 14 13 14 14 16 14 11 11 13 14 13 13 12 11 11 9 8 7 10 8 6 4 2 2 2 1 1 1 1 2 3 3 4 5 5 5 6 6 6 6 5 6 7 7 8 8 8 8 8 9 9 9 9 9 8 9 8 8 8 9 9
5 4 4 4 5 4 5 5 6 7 7 7 7 7 6 7 7 8 8 6 8 11 12 10 12 14 13 15 15 14 14 13 13 13 12 11 11 10 8 6 7 6 7 5 5 3 2 1 1 1 0 1 2 2 3 4 4 5 5 5 6 6 7 7 7 8 8 8 8 8 8 8 8 9 9 9 9 9 9 9 8 8 8 8 9
6 7 9 7 5 6 6 6 7 7 7 7 7 7 7 6 8 9 9 9 8 7 6 5 5 10 11 9 12 14 14 13 12 12 11 10 9 8 8 6 4 3 4 3 3 4 3 2 1 1 0 2 2 1 3 4 5 5 5 6 7 7 8 8 8 8 8 8 8 8 8 9 9 9 9 9 8 8 8 8 8 8 9 8 8
7 7 6 7 6 5 5 6 7 8 9 8 7 7 7 8 7 6 6 8 10 10 7 5 4 5 10 11 12 12 13 12 12 11 10 9 6 6 5 4 5 2 3 2 2 3 3 3 2 1 0 0 1 1 2 5 5 5 6 7 8 8 8 8 8 8 8 8 8 9 9 9 8 8 8 8 9 9 8 9 8 8 9 9 8
8 7 7 7 7 6 5 5 7 8 6 7 7 7 6 6 6 7 8 9 9 9 10 8 7 7 6 5 8 11 11 12 12 11 9 7 6 5 5 5 6 5 5 3 3 3 2 2 2 2 1 0 1 2 3 5 5 6 6 7 7 8 8 7 9 8 9 9 9 9 9 9 9 8 8 9 9 8 8 8 9 9 9 10 10
6 7 7 7 7 5 5 6 6 8 7 6 6 8 7 7 8 9 9 8 10 10 9 8 7 8 8 5 3 5 8 10 11 8 6 5 4 5 4 3 4 6 5 3 4 4 3 2 3 1 1 1 3 4 4 5 5 6 7 8 8 7 12 11 11 10 9 9 9 9 8 8 8 8 8 8 9 8 8 8 8 8 8 9 8
7 7 8 9 8 7 7 7 8 8 7 6 7 9 11 9 7 7 8 8 8 8 7 7 7 8 7 7 6 6 8 6 5 6 4 2 2 4 5 5 4 4 4 4 2 3 4 3 2 1 0 4 2 3 4 5 6 7 7 7 8 8 9 7 8 8 8 8 8 8 8 8 8 8 8 8 8 8 8 9 8 8 8 8 7
8 7 5 7 5 8 8 8 8 6 7 11 8 5 6 9 10 9 9 9 9 8 8 7 6 6 6 6 6 5 6 6 6 5 5 3 3 3 5 6 6 6 4 2 3 4 3 3 1 2 2 1 2 4 5 5 6 7 7 7 8 9 9 8 8 8 9 9 9 8 8 8 8 8 8 8 8 8 8 8 8 8 8 8 8
7 7 7 7 7 7 7 9 9 10 2 3 11 9 9 9 9 9 9 8 7 7 6 7 6 5 6 6 7 6 6 5 4 2 1 3 5 5 6 6 6 3 2 4 4 3 4 2 2 1 1 2 3 3 5 5 6 7 7 7 7 8 8 8 8 8 9 9 9 9 8 8 8 8 8 8 8 8 8 8 8 7 7 8 8
7 7 7 7 7 7 8 7 8 9 10 8 7 8 9 9 9 8 8 7 6 5 5 5 5 5 6 9 9 7 6 5 5 5 5 5 5 5 6 4 3 4 5 5 5 4 3 3 1 1 1 2 3 4 5 6 6 7 7 7 8 8 8 8 8 8 9 9 9 9 9 9 9 9 9 8 8 7 7 7 7 7 7 7 7
8 7 8 8 8 8 9 8 9 9 8 8 8 8 9 9 8 6 6 6 6 6 6 6 4 4 3 4 7 7 6 6 5 6 5 6 6 5 5 4 4 4 3 2 3 4 4 3 1 1 1 3 3 4 5 6 6 7 7 7 7 8 8 8 8 8 9 9 9 10 10 9 8 8 8 8 8 8 7 7 7 7 7 7 6
10 9 9 9 8 8 8 9 9 8 9 9 10 8 7 6 6 6 6 5 5 5 5 5 5 5 5 5 6 6 6 5 5 6 6 6 5 5 4 3 2 3 2 1 0 1 2 1 0 2 2 3 3 3 4 5 5 5 6 7 7 8 8 8 9 9 9 9 10 10 9 9 9 8 8 8 8 8 8 8 7 7 7 6 6
11 10 10 10 9 9 9 8 8 8 8 7 6 6 7 6 6 5 6 5 5 5 5 5 5 6 6 6 6 6 6 6 6 6 5 5 5 3 2 2 3 3 1 1 2 2 1 1 1 2 4 5 5 4 5 5 5 5 5 6 6 7 8 9 9 9 9 9 9 9 9 8 8 8 8 8 8 8 8 8 7 7 7 6 5
11 11 11 11 10 9 9 7 6 7 7 6 6 5 5 5 5 6 6 6 6 6 6 5 5 6 6 6 6 6 6 6 5 5 5 4 4 2 2 3 2 1 1 2 4 3 3 2 3 4 4 5 5 5 5 5 5 5 5 5 6 6 7 8 8 9 9 9 9 8 8 8 8 8 9 9 8 7 7 8 7 6 6 6 6
11 10 9 9 8 8 7 7 7 7 7 7 7 7 6 6 6 6 7 8 8 7 7 6 6 6 6 6 6 6 6 6 5 5 4 3 3 2 3 3 1 1 2 4 4 4 4 4 3 3 4 4 5 5 6 6 6 6 5 6 6 7 7 8 9 8 8 9 8 8 8 7 7 7 8 9 8 8 8 7 7 7 6 5 5
10 10 10 9 9 9 8 8 9 8 8 8 8 8 7 7 7 7 7 7 8 7 7 6 6 6 6 6 6 6 6 5 4 4 3 3 3 2 3 3 1 1 2 5 4 4 4 3 4 4 5 4 4 6 6 6 6 6 6 7 6 8 12 12 9 8 7 7 8 8 8 8 7 7 7 8 8 8 7 7 7 6 5 5 4
9 9 9 9 8 8 8 8 8 8 8 8 9 9 8 8 8 7 7 7 7 7 6 7 6 6 7 6 6 6 5 5 5 4 4 3 2 3 3 1 1 2 4 4 4 4 4 5 4 4 4 3 5 6 6 6 7 7 8 7 10 17 17 16 10 8 10 8 7 7 7 6 7 7 7 7 8 7 7 7 6 6 5 5 4
9 9 9 9 9 8 8 8 8 8 8 8 9 8 8 8 8 7 7 7 7 7 6 6 6 6 6 6 6 5 5 5 4 4 3 3 3 3 3 3 3 3 4 4 4 4 5 4 4 4 3 4 5 5 6 6 6 8 8 10 15 17 16 17 15 14 11 7 7 6 6 6 6 6 6 7 7 8 7 7 6 5 5 5 5
9 9 9 9 8 8 8 8 8 8 8 8 8 8 8 7 7 7 7 7 7 6 6 6 6 6 6 5 5 5 5 5 4 3 2 2 3 3 3 3 3 2 3 4 5 5 4 4 4 4 3 4 5 6 6 6 6 8 11 15 16 17 17 16 11 13 15 10 6 7 7 7 7 7 7 7 7 7 8 8 7 6 5 4 4
Wind_Direction
127 73 101 119 121 126 128 118 108 108 11 281 200 180 179 178 180 186 177 194 188 183 178 175 171 171 172 175 174 172 163 170 163 155 155 156 162 159 150 135 142 177 150 140 80 123 128 137 150 104 104 82 75 37 33 21 19 45 41 57 45 33 39 51 330 300 303 306 314 337 327 358 353 354 349 342 336 334 333 329 331 336 335 338 336
170 124 119 135 132 133 134 137 152 153 159 192 231 214 185 182 180 169 183 195 186 186 186 183 179 175 178 183 182 183 179 177 172 161 163 164 172 170 164 157 165 183 170 184 212 168 122 127 156 156 140 116 84 52 32 46 47 49 37 57 62 44 22 59 359 312 309 324 351 341 346 359 342 348 353 347 343 341 339 339 343 346 351 356 352
116 116 128 123 133 141 152 156 157 151 146 159 152 150 200 193 178 180 190 190 193 189 187 184 182 182 185 194 195 194 192 183 173 168 168 170 174 184 178 171 172 182 186 195 188 170 135 121 157 165 96 72 47 58 55 72 75 77 59 51 63 48 38 62 65 3 335 318 332 349 357 346 350 345 350 349 345 345 349 356 354 355 6 3 356
117 106 130 138 137 148 160 169 151 144 147 169 154 155 152 215 198 190 192 187 191 203 189 184 181 187 191 194 201 207 213 209 194 188 179 177 181 186 187 184 183 183 188 190 182 168 164 144 180 185 117 118 30 48 54 79 73 83 73 54 65 42 33 45 56 75 309 345 315 342 344 350 343 349 348 349 351 347 353 350 359 7 5 2 358
131 141 141 155 176 163 166 166 161 157 157 166 145 85 110 164 228 239 192 191 197 182 186 190 189 191 192 192 195 201 201 197 198 207 203 193 187 186 189 189 191 191 188 187 184 176 172 178 175 165 151 132 121 77 78 71 63 67 63 45 58 46 49 48 44 51 44 6 319 305 350 343 344 340 356 353 345 348 354 358 352 355 354 354 355
153 149 149 157 179 177 168 165 161 159 152 147 154 160 211 201 164 169 181 290 256 188 178 184 193 198 202 201 202 200 193 197 204 211 212 202 192 188 187 189 193 191 190 187 184 182 176 189 170 164 155 154 160 116 96 103 85 73 65 49 50 52 52 40 48 53 52 14 331 326 2 3 345 351 356 355 346 342 346 344 348 2 360 351 351
155 145 155 153 144 135 215 234 168 152 138 173 173 147 219 216 187 149 147 176 211 179 179 183 195 191 205 205 205 199 198 200 208 213 212 205 200 195 194 195 192 188 191 185 184 180 180 178 170 171 170 167 150 152 135 117 114 104 103 100 61 65 49 38 34 40 43 18 336 11 325 341 12 335 342 348 338 352 352 345 342 350 356 353 336
157 158 160 156 165 176 182 193 183 158 144 140 186 206 198 179 153 123 128 159 254 204 172 175 181 191 206 209 211 200 197 205 216 220 214 204 205 209 202 195 193 193 191 188 178 179 179 177 171 175 168 163 153 163 148 142 134 110 135 96 74 67 58 37 38 32 27 15 360 322 335 315 339 293 318 342 348 350 16 359 333 332 334 337 333
144 153 165 172 182 188 180 175 158 152 169 184 204 209 195 200 209 174 152 206 199 202 187 183 177 199 218 219 222 197 206 216 215 210 201 203 205 212 207 202 195 192 191 186 182 176 175 170 168 165 162 159 158 159 163 155 142 135 143 108 102 91 62 47 41 33 16 11 333 326 334 338 328 334 340 0 353 313 319 344 315 311 312 319 324
139 147 159 183 190 180 175 165 160 165 179 193 201 205 202 202 206 208 204 201 199 180 182 188 187 196 208 226 229 213 211 214 216 207 198 197 199 204 205 206 199 192 185 180 185 185 175 165 168 162 155 151 152 153 157 158 152 146 161 152 138 127 147 77 22 27 13 346 318 325 332 321 319 325 317 303 297 295 320 331 326 322 326 311 297
142 157 174 191 184 172 166 177 162 177 194 203 215 216 208 186 187 206 213 208 198 200 187 194 202 203 207 210 218 224 228 226 224 218 216 208 197 200 199 204 200 194 186 178 179 182 176 168 160 154 148 146 150 156 162 168 163 153 154 158 162 156 158 168 224 181 212 243 269 316 288 295 299 297 297 299 306 304 303 318 304 312 323 331 321
155 182 201 189 177 184 191 162 172 189 184 209 224 234 244 197 222 224 228 233 224 178 193 209 203 196 200 207 217 226 234 241 241 237 228 221 214 206 204 199 196 193 186 182 176 171 173 165 152 144 145 156 156 164 175 182 173 168 163 161 167 173 169 168 191 194 203 227 257 254 253 272 283 305 298 305 303 314 306 310 302 307 308 294 274
155 204 240 205 187 196 185 176 206 207 206 209 209 203 195 204 222 236 253 252 280 245 248 242 237 194 183 193 214 220 231 235 233 236 236 228 224 224 217 208 195 190 184 182 182 174 155 147 152 158 161 162 156 168 177 190 193 175 149 149 172 184 198 213 213 209 185 206 227 252 230 247 278 274 273 307 329 315 316 312 310 297 283 287 282
131 163 169 193 195 184 174 183 208 204 189 131 92 84 93 189 242 254 262 269 227 241 254 242 245 223 210 211 221 225 230 238 224 226 233 235 224 216 234 213 201 189 176 166 156 156 155 146 143 158 158 162 163 168 189 196 178 160 147 154 189 226 236 242 244 251 235 219 222 240 256 190 279 301 309 323 320 304 312 302 311 305 297 284 288
356 331 147 87 100 137 132 142 140 145 149 141 128 121 125 137 127 154 157 177 189 215 232 235 243 238 233 221 221 224 230 223 214 209 220 230 228 209 225 185 157 154 159 149 145 144 143 149 160 163 171 172 174 180 188 205 199 189 160 178 9 360 348 340 319 297 307 311 279 287 301 302 280 283 290 300 274 268 267 276 284 283 284 289 282
28 40 275 166 128 140 132 135 141 139 118 91 85 71 61 88 84 22 87 81 189 171 271 248 249 242 246 221 215 246 269 340 182 186 193 207 198 184 154 122 115 106 96 87 84 95 112 108 116 169 166 150 32 179 207 164 139 105 72 47 39 30 55 51 58 89 93 103 122 242 262 268 276 282 287 290 288 281 285 287 294 289 295 301 295
4 345 336 281 171 159 149 147 150 136 124 104 96 89 85 7 356 84 38 15 4 350 329 293 282 273 204 193 201 227 236 291 193 171 168 146 132 120 110 111 111 109 104 111 108 92 92 149 157 121 84 59 55 73 82 101 82 77 69 57 41 27 348 341 22 42 43 357 266 267 276 292 302 302 298 288 279 279 283 295 284 285 295 297 294
31 39 354 303 300 208 160 168 157 160 143 145 164 186 219 273 269 200 88 332 338 312 317 332 350 321 202 208 214 214 233 19 123 144 140 142 133 127 125 115 104 100 90 68 69 66 45 62 80 92 96 93 90 87 85 88 88 89 83 64 37 5 317 329 334 328 344 344 338 337 335 331 329 327 322 317 313 312 311 294 290 298 286 280 291
313 341 324 316 357 149 159 174 161 154 151 171 168 175 198 205 222 171 151 152 218 326 20 16 342 355 316 260 209 165 131 101 137 141 130 130 125 124 123 117 116 114 102 84 64 66 61 65 84 96 101 103 93 90 91 95 102 108 117 94 53 315 269 266 299 319 329 334 326 332 325 323 319 312 303 302 301 300 286 272 284 280 283 285 285
230 225 213 222 237 147 147 135 155 151 169 187 197 201 201 179 203 195 170 133 56 43 49 47 49 12 356 19 120 144 139 131 152 140 122 119 123 123 128 124 125 117 104 107 93 50 62 86 89 105 109 108 108 108 112 115 122 135 116 105 119 296 242 242 273 277 285 287 286 290 288 288 293 291 293 293 290 280 277 272 263 256 266 277 279
203 212 205 195 252 235 187 158 188 218 204 203 210 224 195 204 220 189 210 57 54 41 52 63 65 33 19 17 48 66 120 128 116 124 111 114 117 117 117 119 126 122 124 116 117 123 113 108 108 119 119 123 125 130 130 126 124 128 132 147 184 217 3 350 302 312 303 296 299 302 294 294 288 287 282 280 274 270 267 264 259 251 251 266 276
275 257 208 223 254 269 270 251 189 206 214 201 281 282 268 242 215 206 158 125 82 76 90 84 79 53 32 26 27 42 57 94 121 113 111 105 104 109 111 114 126 122 105 108 117 124 135 140 146 159 146 143 146 141 130 128 129 106 170 203 259 296 303 264 273 294 300 300 300 299 296 295 290 286 279 272 269 268 263 262 261 258 249 242 251
241 255 275 252 212 208 224 253 285 327 300 214 217 253 289 298 256 181 177 156 125 120 121 107 93 77 49 35 36 46 57 70 100 103 101 100 95 89 97 104 90 92 114 125 130 124 123 138 158 170 166 150 145 144 143 147 127 202 225 244 256 268 265 274 280 296 296 299 300 294 290 287 286 279 276 274 269 266 264 261 260 259 260 257 254
237 238 235 245 259 253 235 234 227 213 199 182 178 222 265 259 265 253 227 193 152 117 119 114 108 109 105 82 60 61 57 89 92 108 106 101 95 91 86 86 92 94 95 100 108 128 138 160 181 189 165 142 138 163 177 178 192 224 244 286 315 313 281 297 295 283 289 297 298 289 283 276 273 277 272 267 272 272 274 273 270 266 266 266 264
233 227 225 227 219 219 204 205 231 242 250 224 239 236 253 262 269 264 239 227 176 142 151 144 139 134 127 135 138 109 77 78 79 90 101 101 101 101 99 99 100 96 93 104 112 133 148 139 139 161 196 169 154 153 135 110 87 63 12 343 343 343 310 280 278 285 298 289 282 276 274 270 264 265 269 273 275 282 282 279 275 274 274 273 271
239 222 222 215 214 213 210 232 221 222 235 228 214 214 217 239 239 268 261 247 188 152 155 144 139 142 146 152 152 150 117 90 99 102 98 90 87 89 94 96 95 97 106 114 125 123 134 135 117 105 86 76 66 58 54 41 37 45 16 6 1 329 304 296 295 308 295 288 282 281 274 275 275 271 272 280 287 284 282 283 287 285 285 287 287
243 294 288 285 296 294 232 220 234 243 239 62 79 99 204 209 214 235 233 214 183 170 159 159 152 152 156 156 155 155 145 139 133 120 108 96 94 95 91 88 92 92 87 77 71 68 61 63 78 81 82 71 65 61 57 21 29 13 357 351 344 334 321 318 308 301 299 295 290 285 285 280 284 295 293 290 285 280 270 277 278 275 278 279 283
188 215 230 220 220 196 203 244 251 245 64 59 79 32 17 203 197 204 203 199 186 190 181 176 172 165 159 157 153 152 149 145 135 123 113 106 101 94 93 91 83 95 90 81 75 69 79 74 63 52 55 51 41 31 19 11 30 14 360 356 349 339 330 320 317 302 284 277 280 284 286 293 293 289 289 286 279 279 276 274 269 274 271 282 281
205 211 218 210 227 235 226 231 230 209 130 73 64 79 128 350 298 283 256 192 171 154 162 170 174 181 166 163 156 149 150 155 169 155 131 134 129 121 107 108 103 76 87 104 94 77 75 65 56 49 44 52 39 23 10 10 356 352 353 344 340 335 324 326 312 300 294 301 300 300 298 297 294 290 286 285 283 282 274 268 260 261 269 264 270
246 235 219 210 224 219 222 218 220 169 146 150 127 94 67 77 64 92 279 278 232 190 166 178 177 150 133 109 132 145 150 165 151 130 124 109 100 100 102 100 94 96 88 86 97 85 73 78 58 68 53 51 42 22 7 355 352 346 335 328 329 324 314 307 301 298 301 297 295 297 295 296 293 293 289 285 285 278 270 262 267 259 269 268 271
241 235 212 205 204 201 211 247 205 135 161 155 152 135 110 29 33 33 31 21 157 156 146 128 144 154 143 128 123 125 131 131 133 126 116 110 107 104 98 90 89 100 124 88 56 78 86 80 56 55 48 58 45 8 360 2 342 335 322 316 308 304 301 302 296 299 303 303 300 294 290 287 285 283 281 280 279 278 276 269 266 265 264 268 269
237 231 220 220 206 203 194 164 131 136 145 157 157 150 135 105 42 29 31 45 68 128 140 141 140 136 133 129 125 95 117 129 128 119 115 112 110 110 109 104 94 83 79 93 88 71 83 99 78 59 59 51 347 341 350 348 324 313 307 314 307 301 300 300 294 294 293 291 289 287 286 283 282 282 280 280 279 278 276 274 268 266 264 262 262
252 260 236 210 209 192 148 144 152 146 151 154 164 158 147 143 118 79 35 43 52 61 111 132 134 138 132 129 133 139 144 139 128 121 120 121 119 117 115 113 109 88 72 68 102 93 81 105 132 158 106 62 324 339 324 318 308 308 304 297 295 290 285 278 282 290 288 287 289 287 287 286 283 282 280 279 278 278 276 273 270 266 264 266 265
217 223 245 234 212 194 163 154 156 166 167 168 167 165 160 141 139 134 115 93 56 49 49 78 114 116 116 123 123 123 127 129 126 126 125 124 123 124 113 98 86 71 106 127 108 128 139 149 180 172 217 339 358 353 333 316 302 290 290 284 280 289 299 306 310 302 298 294 291 287 285 282 281 281 281 277 273 272 272 269 268 267 264 261 265
206 211 219 228 220 208 178 165 165 162 164 166 166 160 152 155 149 146 148 139 130 121 121 75 74 115 128 119 124 126 128 127 127 128 124 120 116 114 103 92 73 29 39 77 116 144 158 177 184 217 148 18 330 309 285 293 300 306 307 311 315 313 309 308 301 296 292 290 288 284 282 282 280 277 276 278 278 276 273 272 268 264 266 267 266
216 209 206 207 211 208 179 170 169 168 174 175 166 156 151 151 147 139 128 127 126 124 102 91 85 52 94 110 117 120 121 122 122 117 115 113 123 98 86 97 96 112 133 164 166 200 184 179 167 155 199 283 261 285 312 317 311 316 319 313 303 299 298 296 294 293 290 288 285 285 286 282 280 280 278 274 273 274 275 273 272 269 265 264 264
210 209 209 211 214 213 178 167 174 175 161 149 143 140 142 134 132 131 133 131 130 129 128 125 108 84 58 72 106 112 115 116 112 110 108 107 95 87 115 127 132 131 132 165 183 162 160 200 170 172 197 218 265 351 339 329 323 312 299 294 291 292 288 284 288 291 294 294 292 290 288 287 286 285 283 281 279 275 273 272 271 269 266 264 265
199 200 201 198 196 174 147 155 150 140 144 147 143 135 129 137 141 140 135 135 134 131 128 132 135 135 135 143 165 132 124 114 105 90 87 82 75 87 101 103 123 140 158 180 182 162 148 170 196 175 221 193 36 349 332 310 304 299 294 291 289 281 291 293 293 292 290 290 290 289 290 289 287 286 284 281 281 282 279 276 275 275 271 264 260
192 187 192 199 177 154 149 134 136 140 129 120 138 147 143 133 124 119 122 126 127 127 134 142 145 147 147 148 145 157 131 140 153 150 132 140 131 123 121 126 141 149 162 175 167 139 161 182 215 220 144 54 22 308 300 298 298 294 291 292 292 292 294 292 295 297 296 293 293 292 292 291 290 288 286 284 282 280 280 279 275 273 273 273 267
183 178 152 139 142 147 137 132 124 117 145 141 135 131 126 131 136 138 138 135 137 145 150 152 154 153 149 147 147 148 144 159 162 160 152 150 145 145 133 134 139 154 171 179 165 167 164 194 199 70 35 28 324 303 302 296 294 291 292 292 294 297 296 296 295 298 299 299 296 296 297 297 296 294 291 286 284 283 283 281 280 275 274 273 274
163 159 144 141 142 129 122 128 135 125 128 171 138 144 139 132 132 136 129 126 141 148 156 158 150 147 158 164 159 142 140 162 167 143 135 123 125 134 142 138 146 157 174 166 168 172 182 159 89 56 275 336 316 304 299 299 296 297 296 296 296 295 297 298 299 299 301 301 300 301 302 301 300 298 294 291 289 289 283 279 277 276 274 272 269
136 135 128 122 126 117 118 118 120 126 133 136 123 128 128 130 129 123 126 144 147 147 141 126 127 137 162 160 147 120 100 108 123 122 113 114 119 113 107 118 150 164 166 165 173 180 166 114 139 224 322 323 303 302 304 307 304 301 302 302 301 303 305 305 306 305 305 303 303 303 303 302 300 299 296 298 298 295 291 284 280 280 279 276 273
115 112 112 116 116 122 122 123 124 123 121 118 119 116 116 117 119 126 140 147 150 151 137 127 130 133 140 129 113 93 89 104 109 114 116 111 106 106 115 135 163 182 176 186 195 170 139 149 182 234 281 285 286 292 303 299 300 302 304 304 305 307 307 308 309 309 308 307 305 304 303 302 303 303 303 304 300 298 293 293 291 286 284 279 275
103 101 101 101 99 97 102 110 110 112 117 116 113 113 119 120 124 132 140 144 145 134 123 125 127 117 103 91 96 93 101 101 107 111 113 109 107 113 125 138 141 94 65 66 224 120 124 151 267 295 293 296 302 298 291 290 297 303 306 307 308 311 311 312 311 311 311 308 304 304 306 306 307 308 308 307 308 305 306 305 302 299 293 288 281
96 99 100 98 94 96 88 86 89 93 98 103 111 113 121 126 138 143 138 127 110 104 100 106 107 110 106 106 110 113 115 115 115 111 105 110 110 120 134 118 83 72 50 24 31 47 32 302 287 334 328 321 323 322 313 307 311 309 304 305 308 310 311 310 308 306 304 301 300 304 307 309 310 312 312 313 312 310 307 309 305 300 296 291 289
81 84 88 91 93 95 101 104 104 107 112 114 118 120 121 121 127 126 115 105 102 104 99 96 95 99 105 108 107 105 108 104 101 102 105 104 111 107 91 77 60 44 55 57 40 30 18 7 332 337 326 327 333 329 323 323 326 323 317 309 304 300 301 303 306 306 301 300 300 302 303 306 310 312 313 313 313 312 309 306 303 295 291 295 297
82 87 87 93 91 92 86 91 91 95 98 103 109 107 110 108 102 93 89 93 98 98 93 92 88 90 89 93 101 104 108 107 114 113 113 115 108 99 73 64 33 343 12 43 42 32 17 1 347 334 334 345 345 337 333 332 329 324 322 316 312 313 316 316 309 299 292 292 297 299 304 309 311 313 316 318 320 318 317 310 309 306 307 306 312
71 73 75 79 82 86 91 92 97 96 94 91 89 90 92 91 88 85 88 88 87 88 87 80 77 81 86 85 88 97 100 102 99 96 93 83 74 69 60 50 19 348 36 37 22 22 11 349 347 343 355 2 355 342 338 335 335 332 328 322 316 315 315 315 308 303 293 298 296 301 308 314 314 315 318 320 320 320 320 322 320 321 320 322 322
69 72 75 74 79 79 81 79 75 75 80 83 81 77 76 76 75 75 76 76 75 72 78 84 81 81 81 83 86 87 89 89 89 82 75 66 55 46 48 2 348 26 44 27 17 10 353 351 348 355 5 15 5 347 343 344 341 340 333 327 323 324 324 324 320 309 312 308 303 305 309 312 317 320 322 325 326 324 323 321 323 327 330 338 345
60 62 67 67 69 69 70 71 71 73 71 75 79 79 74 77 75 75 77 78 76 73 70 73 76 77 84 84 82 81 80 84 84 84 77 62 43 27 6 357 13 18 28 20 6 356 354 351 355 7 17 26 3 351 349 345 344 336 332 325 324 326 328 329 326 325 328 319 312 311 313 314 320 325 329 330 330 331 334 332 331 335 339 348 359
60 62 64 64 64 64 65 69 67 66 67 72 76 80 79 76 75 74 75 76 79 77 78 77 82 80 78 81 82 83 80 80 77 75 68 53 31 17 1 356 355 355 7 15 6 360 357 360 8 16 26 23 3 356 352 347 345 339 328 326 330 334 335 334 330 326 327 329 319 321 328 330 335 341 344 343 342 341 341 338 339 341 343 349 354